Meridian No. 13L

operational
NORAD ID: 37212 Int'l Des: 2010-058 Owner: KVR Country: RU
MEOELLIPTICALHEO_ELLIPTICALSEMI_SYNCMOLNIYA

Meridian No. 13Lについて

説明を読み込み中...

リアルタイム位置

3D地球を読み込み中...

次回通過

高度履歴

Altitude vs Time

uPlot chart will show altitude changes over time

軌道要素

1 37212U 10058A 26062.15121947 -.00000048 00000-0 00000-0 0 9998
2 37212 63.4576 103.2172 6774258 261.2550 22.7222 2.00601046112330
Epoch: Mar 3, 2026 • Age: 21 hours

現在のステータス

高度 38152.5 km
速度 1.70 km/s
衛星直下点 62.63°N, 60.47°E
打ち上げ日 Nov 2, 2010
運用期間 15.3 years
タイプ other

技術仕様

分類 Payload
質量 2000.00 kg
乾燥質量 2000.00 kg
総質量 2000.00 kg
長さ 4.00 m
直径 2.00 m
スパン 10.00 m
形状 Box + 2 Pan
製造者 RESH
バスタイプ Meridian
フェーズステータス In Orbit
所有者/国 KVR/RU

大規模コンステレーション

Loading constellations...